TimeCDT,TemperatureF,Dew PointF,Humidity,Sea Level PressureIn,VisibilityMPH,Wind Direction,Wind SpeedMPH,Gust SpeedMPH,PrecipitationIn,Events,Conditions,WindDirDegrees,DateUTC
12:15 AM,46.4,33.8,62,29.94,10.0,West,4.6,-,N/A,,Clear,270,2013-10-02 05:15:00
12:35 AM,48.2,33.8,58,29.93,10.0,North,3.5,-,N/A,,Clear,350,2013-10-02 05:35:00
12:55 AM,46.4,35.6,66,29.94,10.0,SSE,6.9,-,N/A,,Clear,150,2013-10-02 05:55:00
1:15 AM,44.6,33.8,66,29.94,10.0,South,4.6,-,N/A,,Clear,170,2013-10-02 06:15:00
1:35 AM,46.4,33.8,62,29.94,10.0,SSE,3.5,-,N/A,,Clear,150,2013-10-02 06:35:00
1:55 AM,44.6,35.6,71,29.94,10.0,SE,8.1,-,N/A,,Clear,130,2013-10-02 06:55:00
2:15 AM,44.6,35.6,71,29.94,10.0,SE,4.6,-,N/A,,Scattered Clouds,140,2013-10-02 07:15:00
2:35 AM,46.4,35.6,66,29.94,10.0,SE,3.5,-,N/A,,Overcast,140,2013-10-02 07:35:00
2:55 AM,50.0,35.6,58,29.93,10.0,SSE,3.5,-,N/A,,Overcast,150,2013-10-02 07:55:00
3:15 AM,50.0,35.6,58,29.92,10.0,East,4.6,-,N/A,,Overcast,100,2013-10-02 08:15:00
3:35 AM,50.0,37.4,62,29.93,10.0,ESE,3.5,-,N/A,,Overcast,110,2013-10-02 08:35:00
3:55 AM,48.2,39.2,71,29.93,10.0,North,4.6,-,N/A,Rain,Light Rain,10,2013-10-02 08:55:00
4:15 AM,46.4,39.2,76,29.93,10.0,ENE,3.5,-,N/A,,Overcast,60,2013-10-02 09:15:00
4:35 AM,46.4,39.2,76,29.92,10.0,NE,5.8,-,N/A,,Overcast,50,2013-10-02 09:35:00
4:55 AM,46.4,39.2,76,29.93,10.0,ENE,4.6,-,N/A,,Overcast,60,2013-10-02 09:55:00
5:15 AM,46.4,39.2,76,29.93,10.0,NE,5.8,-,N/A,,Overcast,40,2013-10-02 10:15:00
5:35 AM,46.4,39.2,76,29.93,10.0,NE,5.8,-,N/A,,Overcast,40,2013-10-02 10:35:00
5:55 AM,46.4,39.2,76,29.93,10.0,NE,6.9,-,N/A,,Overcast,40,2013-10-02 10:55:00
6:15 AM,46.4,39.2,76,29.93,10.0,NE,5.8,-,N/A,,Overcast,40,2013-10-02 11:15:00
6:35 AM,46.4,39.2,76,29.92,10.0,NE,9.2,-,N/A,,Overcast,50,2013-10-02 11:35:00
6:55 AM,46.4,39.2,76,29.93,10.0,NNE,8.1,-,N/A,Rain,Light Rain,30,2013-10-02 11:55:00
7:15 AM,46.4,39.2,76,29.93,10.0,North,9.2,-,N/A,,Overcast,10,2013-10-02 12:15:00
7:35 AM,48.2,39.2,71,29.93,10.0,NE,6.9,-,N/A,,Overcast,50,2013-10-02 12:35:00
7:55 AM,48.2,39.2,71,29.93,10.0,NE,10.4,-,N/A,,Overcast,40,2013-10-02 12:55:00
8:15 AM,48.2,39.2,71,29.93,10.0,NE,6.9,-,N/A,,Overcast,40,2013-10-02 13:15:00
8:35 AM,48.2,39.2,71,29.94,10.0,NE,9.2,-,N/A,,Overcast,40,2013-10-02 13:35:00
8:55 AM,51.8,39.2,62,29.95,10.0,NNE,8.1,-,N/A,,Overcast,30,2013-10-02 13:55:00
9:15 AM,53.6,39.2,58,29.95,10.0,NNE,10.4,-,N/A,,Overcast,20,2013-10-02 14:15:00
9:35 AM,53.6,39.2,58,29.95,10.0,North,-9999.0,-,N/A,,Scattered Clouds,0,2013-10-02 14:35:00
9:55 AM,57.2,39.2,51,29.95,10.0,North,-9999.0,-,N/A,,Partly Cloudy,0,2013-10-02 14:55:00
10:15 AM,57.2,39.2,51,29.96,10.0,NNE,10.4,-,N/A,,Partly Cloudy,20,2013-10-02 15:15:00
10:35 AM,59.0,41.0,51,29.97,10.0,North,13.8,18.4,N/A,,Clear,360,2013-10-02 15:35:00
10:55 AM,59.0,39.2,48,29.97,10.0,NNE,16.1,21.9,N/A,,Clear,30,2013-10-02 15:55:00
11:15 AM,62.6,39.2,42,29.97,10.0,NNE,17.3,-,N/A,,Clear,30,2013-10-02 16:15:00
11:35 AM,60.8,37.4,42,29.97,10.0,NE,17.3,24.2,N/A,,Clear,40,2013-10-02 16:35:00
11:55 AM,62.6,37.4,39,29.97,10.0,NE,18.4,25.3,N/A,,Clear,40,2013-10-02 16:55:00
12:15 PM,64.4,37.4,37,29.97,10.0,NNE,17.3,21.9,N/A,,Clear,30,2013-10-02 17:15:00
12:35 PM,64.4,37.4,37,29.97,10.0,NE,15.0,-,N/A,,Clear,40,2013-10-02 17:35:00
12:55 PM,64.4,39.2,40,29.98,10.0,NNE,13.8,-,N/A,,Clear,30,2013-10-02 17:55:00
1:15 PM,64.4,37.4,37,29.98,10.0,NNE,15.0,19.6,N/A,,Clear,30,2013-10-02 18:15:00
1:35 PM,64.4,37.4,37,29.97,10.0,NE,9.2,-,N/A,,Clear,40,2013-10-02 18:35:00
1:55 PM,66.2,37.4,35,29.98,7.0,NNW,19.6,25.3,N/A,,Clear,340,2013-10-02 18:55:00
2:15 PM,64.4,35.6,34,29.98,4.0,North,19.6,25.3,N/A,,Haze,360,2013-10-02 19:15:00
2:35 PM,64.4,35.6,34,29.97,10.0,NNW,21.9,-,N/A,,Clear,340,2013-10-02 19:35:00
2:55 PM,64.4,35.6,34,29.97,5.0,North,15.0,21.9,N/A,,Haze,350,2013-10-02 19:55:00
3:15 PM,64.4,35.6,34,29.96,10.0,North,17.3,-,N/A,,Clear,350,2013-10-02 20:15:00
3:35 PM,64.4,35.6,34,29.96,10.0,North,12.7,18.4,N/A,,Clear,350,2013-10-02 20:35:00
3:55 PM,64.4,35.6,34,29.97,10.0,NNE,10.4,-,N/A,,Clear,20,2013-10-02 20:55:00
4:15 PM,64.4,35.6,34,29.97,10.0,North,8.1,-,N/A,,Clear,350,2013-10-02 21:15:00
4:35 PM,64.4,33.8,32,29.97,9.0,North,11.5,-,N/A,,Clear,360,2013-10-02 21:35:00
4:55 PM,64.4,35.6,34,29.97,10.0,NNE,3.5,-,N/A,,Partly Cloudy,30,2013-10-02 21:55:00
5:15 PM,62.6,33.8,34,29.97,10.0,NNW,6.9,-,N/A,,Scattered Clouds,340,2013-10-02 22:15:00
5:35 PM,64.4,37.4,37,29.98,7.0,NNW,13.8,-,N/A,,Scattered Clouds,330,2013-10-02 22:35:00
5:55 PM,62.6,35.6,37,29.98,10.0,NNW,11.5,-,N/A,,Partly Cloudy,330,2013-10-02 22:55:00
6:15 PM,62.6,37.4,39,29.98,4.0,NNW,10.4,-,N/A,,Haze,330,2013-10-02 23:15:00
6:35 PM,59.0,37.4,45,29.98,10.0,NNW,8.1,-,N/A,,Clear,340,2013-10-02 23:35:00
6:55 PM,59.0,39.2,48,29.98,10.0,North,5.8,-,N/A,,Clear,350,2013-10-02 23:55:00
7:15 PM,57.2,37.4,48,29.98,10.0,North,6.9,-,N/A,,Clear,350,2013-10-03 00:15:00
7:35 PM,57.2,37.4,48,29.98,10.0,North,5.8,-,N/A,,Clear,360,2013-10-03 00:35:00
7:55 PM,55.4,37.4,51,29.99,10.0,North,5.8,-,N/A,,Clear,350,2013-10-03 00:55:00
8:15 PM,55.4,37.4,51,29.99,10.0,NNW,4.6,-,N/A,,Clear,340,2013-10-03 01:15:00
8:35 PM,53.6,37.4,54,29.99,10.0,North,4.6,-,N/A,,Clear,350,2013-10-03 01:35:00
8:55 PM,53.6,35.6,51,30.00,10.0,NNW,4.6,-,N/A,,Clear,330,2013-10-03 01:55:00
9:15 PM,51.8,33.8,50,30.00,10.0,NNW,5.8,-,N/A,,Clear,330,2013-10-03 02:15:00
9:35 PM,51.8,35.6,54,30.00,10.0,NNW,6.9,-,N/A,,Clear,340,2013-10-03 02:35:00
9:55 PM,50.0,35.6,58,30.01,10.0,ENE,5.8,-,N/A,,Clear,70,2013-10-03 02:55:00
10:15 PM,50.0,35.6,58,30.01,10.0,North,4.6,-,N/A,,Clear,10,2013-10-03 03:15:00
10:35 PM,48.2,35.6,62,30.01,10.0,NNE,5.8,-,N/A,,Clear,30,2013-10-03 03:35:00
10:55 PM,48.2,35.6,62,30.00,10.0,NE,4.6,-,N/A,,Clear,40,2013-10-03 03:55:00
11:15 PM,48.2,35.6,62,30.01,10.0,East,6.9,-,N/A,,Clear,90,2013-10-03 04:15:00
11:35 PM,48.2,37.4,66,30.01,10.0,Calm,Calm,-,N/A,,Clear,0,2013-10-03 04:35:00
11:55 PM,50.0,37.4,62,30.00,10.0,Calm,Calm,-,N/A,,Clear,0,2013-10-03 04:55:00